Location: Peebles
(55.6412°N, 3.1714°W)
Time: 21:15:01
(UTC+01:00)

deb AGENA D - Pass Details

Date: 06 July 2022
Orbit: 951 x 1019 km, 99.8° (Epoch: 17 August)

Event Time Altitude Azimuth Distance (km) Brightness Sun altitude
Exits shadow 00:49:38 - 130° (SE) 3,382 ? -11.4°
Reaches altitude 10° 00:51:13 10° 126° (SE) 2,807 ? -11.5°
Maximum altitude 00:57:08 43° 58° (ENE) 1,395 ? -11.5°
Drops below altitude 10° 01:03:02 10° 349° (N) 2,807 ? -11.6°
Sets 01:05:37 0° 343° (NNW) 3,754 ? -11.6°
